sat.trackr.live / text

‹ back to catalog

STARLINK-33756

NORAD 63458 · 2025-069AB

PAYLOAD ACTIVE UNKNOWN

§ Identity

Operator
Country
US
Launch date
2025-04-04
Launch site
AFWTR
Launch vehicle
Mass (kg)
RCS (m²)

Purposes: comms

External: N2YO · Heavens-Above · Gunter

§ Orbital elements

Epoch: 2026-05-25T03:26:11.106240Z

Period
93.24 min
Inclination
53.1582°
Eccentricity
0.0010781
Mean motion
15.44321514 rev/d
Perigee alt
426.0 km
Apogee alt
440.7 km
Semi-major
6,811.5 km
B*
3.8645e-2
RAAN
144.9549°
Arg perigee
285.2495°
Mean anomaly
74.7319°
Rev number
6,514

§ Raw data

STARLINK-337561 63458U 25069AB  26145.14318410  .02035545  00000+0  38645-1 0  99982 63458  53.1582 144.9549 0010781 285.2495  74.7319 15.44321514 65147

JSON: /api/v1/satellites/63458 · /tle

For live sub-satellite position, see the globe view (requires WebGL).

§ Visibility from observer

Set your observer location to see the next 7 days of passes ≥ 10°. The values pass through the URL so the page stays shareable.

No JS? Fill the form by hand. The geolocation button needs JavaScript.